Tracking 34138 objects as of 17-May-2026
HD Live streaming from Space Station
objects crossing your sky now

KUIPER-00189

Track KUIPER-00189 now!
10-day predictions
KUIPER-00189 is classified as:


NORAD ID: 68574
Int'l Code: 2026-072B
Perigee: 632.9 km
Apogee: 633.6 km
Inclination: 51.9 °
Period: 97.2 minutes
Semi major axis: 7004 km
RCS: Unknown
Launch date: April 4, 2026
Source: United States (US)
Launch site: AIR FORCE EASTERN TEST RANGE (AFETR)
Your satellite tracking list
Your tracking list is empty




NASA's NSSDC Master Catalog

Two Line Element Set (TLE):
1 68574U 26072B   26136.91670139 -.00008490  00000-0 -10582-2 0  9992
2 68574  51.8985 335.7953 0000542 342.6138 313.6477 14.81015020  5773
Source of the keplerian elements: AFSPC